Location: Arbon
(43.0005°N, 0.7472°E)
Time: 23:16:09
(UTC+00:00)

Courier 1B Rocket - Pass Details

Date: 03 December 2020
Orbit: 920 x 1202 km, 28.2° (Epoch: 22 January)

Event Time Altitude Azimuth Distance (km) Brightness Sun altitude
Rises 05:23:21 0° 242° (WSW) 4,063 - -19.1°
Exits shadow 05:26:18 - 232° (SW) 3,217 7.3 -18.5°
Reaches altitude 10° 05:26:40 10° 231° (SW) 3,118 7.3 -18.5°
Maximum altitude 05:32:53 26° 178° (S) 2,142 6.9 -17.4°
Drops below altitude 10° 05:39:04 10° 125° (SE) 3,107 8.8 -16.3°
Sets 05:42:22 0° 113° (ESE) 4,045 10.0 -15.7°
